AEE0990 LGAV-LTFM

Flight info

Callsign AEE0990
Flight time N/A
Altitude 35000
Route LGAV/03R N0450F350 DCT KRO UN604 INBET DCT LTFM/34L
Aircraft A320/M-SDE3/L

Departure

Time 2026-05-04 19:21
Airport Athens Eleftherios Venizelos International Airport (LGAV)

Arrival

Time N/A
Airport İstanbul Airport (LTFM)
Time Latitude Longitude Altitude Speed Heading
2026-05-04 19:01 37.93748 23.94975 301 ft 0 kts 306°
2026-05-04 19:12 37.93743 23.94982 301 ft 3 kts 306°
2026-05-04 19:12 37.93723 23.95017 302 ft 2 kts 306°
2026-05-04 19:12 37.93713 23.95035 300 ft 2 kts 282°
2026-05-04 19:13 37.93714 23.95053 304 ft 0 kts 221°
2026-05-04 19:16 37.93707 23.95048 300 ft 3 kts 211°
2026-05-04 19:16 37.93674 23.95024 300 ft 7 kts 211°
2026-05-04 19:16 37.93652 23.95009 301 ft 2 kts 206°
2026-05-04 19:16 37.93634 23.94993 300 ft 6 kts 216°
2026-05-04 19:17 37.93575 23.94936 304 ft 14 kts 217°
2026-05-04 19:17 37.93492 23.94860 302 ft 16 kts 205°
2026-05-04 19:17 37.93391 23.94887 300 ft 15 kts 200°
2026-05-04 19:17 37.93296 23.94801 303 ft 18 kts 216°
2026-05-04 19:18 37.93189 23.94699 305 ft 20 kts 217°
2026-05-04 19:18 37.93064 23.94662 300 ft 21 kts 147°
2026-05-04 19:18 37.92943 23.94609 302 ft 21 kts 214°
2026-05-04 19:18 37.92823 23.94496 302 ft 22 kts 217°
2026-05-04 19:19 37.92694 23.94374 304 ft 24 kts 217°
2026-05-04 19:19 37.92568 23.94291 304 ft 11 kts 145°
2026-05-04 19:19 37.92516 23.94363 307 ft 11 kts 128°
2026-05-04 19:19 37.92499 23.94447 308 ft 11 kts 65°
2026-05-04 19:20 37.92566 23.94523 306 ft 15 kts 38°
2026-05-04 19:20 37.92720 23.94673 302 ft 55 kts 38°
2026-05-04 19:20 37.93206 23.95137 296 ft 115 kts 37°
2026-05-04 19:20 37.93975 23.95867 281 ft 159 kts 37°
2026-05-04 19:21 37.94864 23.96747 798 ft 159 kts 38°
2026-05-04 19:21 37.95730 23.97581 1517 ft 153 kts 36°
2026-05-04 19:21 37.96580 23.98390 2089 ft 157 kts 36°
2026-05-04 19:21 37.97504 23.99270 2361 ft 175 kts 37°
2026-05-04 19:22 37.98501 24.00248 2744 ft 187 kts 38°
2026-05-04 19:22 37.99358 24.01562 3124 ft 207 kts 69°
2026-05-04 19:22 37.99692 24.03430 3519 ft 227 kts 76°
2026-05-04 19:22 38.00108 24.05447 3995 ft 245 kts 72°
2026-05-04 19:23 38.00592 24.07550 4635 ft 257 kts 72°